Chippewa, MI

1:49 AM EST on February 24, 2018 (GMT -0500)
Chippewa County International

Weather History for KCIU - August, 2012

Change the Weather History Date:

Sunday, August 5, 2012

  Actual Average Record
Temperature  
Mean Temperature 64 °F -  
Max Temperature 73 °F 77 °F 89 °F (1989)
Min Temperature 55 °F 51 °F 40 °F (1993)
Degree Days  
Heating Degree Days 1    
Growing Degree Days 14 (Base 50)    
Moisture  
Dew Point 55 °F    
Average Humidity 72    
Maximum Humidity 100    
Minimum Humidity 43    
Precipitation  
Precipitation 0.05 in - - ()
Sea Level Pressure  
Sea Level Pressure 29.88 in    
Wind  
Wind Speed 10 mph (West)    
Max Wind Speed 28 mph    
Max Gust Speed 40 mph    
Visibility 10 miles    
Events      
Averages and records for this station are not official NWS values.
T = Trace of Precipitation, MM = Missing Value Source: NWS Daily Summary

Daily Weather History Graph

Daily Weather History Graph

Search for Another Location

Airport or City:

Trip Planner

Search our weather history database for the weather conditions in past years. The results will help you decide how hot, cold, wet, or windy it might be!

Date:

Astronomy

Aug. 05, 2012 Rise Set
Actual Time 6:24 AM EDT 9:01 PM EDT
Civil Twilight 5:50 AM EDT 9:35 PM EDT
Nautical Twilight 5:07 AM EDT 10:18 PM EDT
Astronomical Twilight 4:17 AM EDT 11:08 PM EDT
Moon 10:20 PM EDT (8/5) 10:30 AM EDT (8/5)
Length of Visible Light 15h 44m
Length of Day
14h 36m
Waning Gibbous, 86% of the Moon is Illuminated
Aug 5
Waning Gibbous
Aug 9
Last Quarter
Aug 17
New
Aug 24
First Quarter
Aug 31
Full

Hourly Weather History & Observations

Time (EDT) Temp. Dew Point Humidity Pressure Visibility Wind Dir Wind Speed Gust Speed Precip Events Conditions
12:15 AM 73.4 °F 69.8 °F 88% 29.78 in 10.0 mi South 3.5 mph - N/A   Scattered Clouds
12:35 AM 73.4 °F 69.8 °F 88% 29.78 in 10.0 mi South 3.5 mph - N/A   Scattered Clouds
12:55 AM 71.6 °F 69.8 °F 94% 29.77 in 10.0 mi Calm Calm - N/A   Partly Cloudy
1:15 AM 71.6 °F 69.8 °F 94% 29.78 in 10.0 mi SW 6.9 mph - 0.01 in   Mostly Cloudy
1:35 AM 71.6 °F 69.8 °F 94% 29.77 in 10.0 mi West 11.5 mph - 0.03 in   Overcast
1:55 AM 69.8 °F 69.8 °F 100% 29.76 in 10.0 mi West 4.6 mph - 0.05 in   Mostly Cloudy
2:15 AM 69.8 °F 68.0 °F 94% 29.76 in 6.0 mi West 3.5 mph - N/A   Mostly Cloudy
2:35 AM 69.8 °F 68.0 °F 94% 29.76 in 10.0 mi Calm Calm - N/A   Overcast
2:55 AM 69.8 °F 68.0 °F 94% 29.76 in 7.0 mi SSW 3.5 mph - N/A   Overcast
3:15 AM 68.0 °F 68.0 °F 100% 29.75 in 6.0 mi Calm Calm - N/A   Overcast
3:35 AM 68.0 °F 68.0 °F 100% 29.74 in 5.0 mi Calm Calm - N/A   Overcast
3:55 AM 68.0 °F 68.0 °F 100% 29.74 in 3.0 mi Calm Calm - N/A   Mostly Cloudy
4:35 AM 68.0 °F 66.2 °F 94% 29.73 in 7.0 mi Calm Calm - N/A   Overcast
5:15 AM 68.0 °F 66.2 °F 94% 29.73 in 8.0 mi SW 3.5 mph - N/A   Overcast
5:35 AM 66.2 °F 66.2 °F 100% 29.73 in 8.0 mi WSW 4.6 mph - N/A   Overcast
5:55 AM 66.2 °F 66.2 °F 100% 29.74 in 10.0 mi West 5.8 mph - N/A   Overcast
6:15 AM 66.2 °F 66.2 °F 100% 29.74 in 10.0 mi West 9.2 mph - N/A   Overcast
6:35 AM 66.2 °F 64.4 °F 94% 29.74 in 10.0 mi West 9.2 mph - N/A   Overcast
6:55 AM 66.2 °F 64.4 °F 94% 29.75 in 10.0 mi West 6.9 mph - N/A   Overcast
7:15 AM 64.4 °F 64.4 °F 100% 29.76 in 10.0 mi West 6.9 mph - N/A   Partly Cloudy
7:35 AM 64.4 °F 64.4 °F 100% 29.76 in 10.0 mi West 6.9 mph - N/A   Clear
7:55 AM 66.2 °F 62.6 °F 88% 29.77 in 10.0 mi West 8.1 mph - N/A   Clear
8:15 AM 66.2 °F 62.6 °F 88% 29.77 in 10.0 mi West 11.5 mph - N/A   Mostly Cloudy
8:35 AM 66.2 °F 62.6 °F 88% 29.78 in 10.0 mi West 9.2 mph 16.1 mph N/A   Overcast
8:55 AM 66.2 °F 62.6 °F 88% 29.78 in 10.0 mi West 15.0 mph - N/A   Mostly Cloudy
9:15 AM 68.0 °F 62.6 °F 83% 29.78 in 10.0 mi West 11.5 mph 20.7 mph N/A   Mostly Cloudy
9:55 AM 64.4 °F 60.8 °F 88% 29.80 in 10.0 mi WNW 17.3 mph 27.6 mph N/A   Overcast
10:15 AM 62.6 °F 57.2 °F 82% 29.82 in 9.0 mi West 21.9 mph 31.1 mph N/A   Overcast
10:35 AM 62.6 °F 57.2 °F 82% 29.83 in 5.0 mi WNW 17.3 mph 24.2 mph N/A   Overcast
10:55 AM 64.4 °F 57.2 °F 77% 29.83 in 10.0 mi West 17.3 mph 27.6 mph N/A   Overcast
11:15 AM 64.4 °F 55.4 °F 73% 29.84 in 10.0 mi WNW 23.0 mph 29.9 mph N/A   Overcast
11:35 AM 64.4 °F 53.6 °F 68% 29.85 in 10.0 mi WNW 25.3 mph 32.2 mph N/A   Overcast
11:55 AM 66.2 °F 53.6 °F 64% 29.86 in 10.0 mi West 20.7 mph 28.8 mph N/A   Overcast
12:15 PM 66.2 °F 53.6 °F 64% 29.88 in 10.0 mi West 17.3 mph 34.5 mph N/A   Overcast
12:35 PM 64.4 °F 53.6 °F 68% 29.88 in 10.0 mi West 20.7 mph 27.6 mph N/A   Mostly Cloudy
12:55 PM 68.0 °F 53.6 °F 60% 29.88 in 10.0 mi West 18.4 mph 33.4 mph N/A   Mostly Cloudy
1:15 PM 68.0 °F 53.6 °F 60% 29.89 in 10.0 mi West 17.3 mph 25.3 mph N/A   Mostly Cloudy
1:35 PM 68.0 °F 51.8 °F 56% 29.88 in 10.0 mi WNW 24.2 mph 33.4 mph N/A   Mostly Cloudy
1:55 PM 69.8 °F 50.0 °F 49% 29.89 in 10.0 mi WNW 20.7 mph 32.2 mph N/A   Mostly Cloudy
2:35 PM 66.2 °F 53.6 °F 64% 29.91 in 10.0 mi WNW 16.1 mph 24.2 mph N/A   Mostly Cloudy
2:55 PM 69.8 °F 50.0 °F 49% 29.90 in 10.0 mi West 25.3 mph 36.8 mph N/A   Mostly Cloudy
3:15 PM 66.2 °F 50.0 °F 56% 29.92 in 10.0 mi WNW 20.7 mph 33.4 mph N/A   Mostly Cloudy
3:35 PM 68.0 °F 48.2 °F 49% 29.92 in 10.0 mi WNW 26.5 mph 40.3 mph N/A   Mostly Cloudy
3:55 PM 66.2 °F 48.2 °F 52% 29.93 in 10.0 mi WNW 21.9 mph 31.1 mph N/A   Overcast
4:15 PM 66.2 °F 48.2 °F 52% 29.94 in 10.0 mi WNW 21.9 mph 29.9 mph N/A   Overcast
4:35 PM 66.2 °F 48.2 °F 52% 29.94 in 10.0 mi NW 27.6 mph 33.4 mph N/A   Overcast
4:55 PM 66.2 °F 48.2 °F 52% 29.95 in 10.0 mi NW 21.9 mph 31.1 mph N/A   Overcast
5:15 PM 66.2 °F 46.4 °F 49% 29.96 in 10.0 mi West 19.6 mph 31.1 mph N/A   Mostly Cloudy
5:35 PM 66.2 °F 46.4 °F 49% 29.97 in 10.0 mi WNW 23.0 mph 29.9 mph N/A   Overcast
5:55 PM 66.2 °F 46.4 °F 49% 29.98 in 10.0 mi WNW 19.6 mph 28.8 mph N/A   Overcast
6:15 PM 68.0 °F 46.4 °F 46% 29.98 in 10.0 mi WNW 19.6 mph 28.8 mph N/A   Mostly Cloudy
6:35 PM 66.2 °F 44.6 °F 46% 29.98 in 10.0 mi NW 21.9 mph 33.4 mph N/A   Mostly Cloudy
6:55 PM 66.2 °F 44.6 °F 46% 29.99 in 10.0 mi WNW 13.8 mph 27.6 mph N/A   Mostly Cloudy
7:15 PM 66.2 °F 42.8 °F 43% 29.99 in 10.0 mi West 23.0 mph 31.1 mph N/A   Mostly Cloudy
7:35 PM 66.2 °F 42.8 °F 43% 30.01 in 10.0 mi WNW 15.0 mph - N/A   Scattered Clouds
7:55 PM 66.2 °F 42.8 °F 43% 30.01 in 10.0 mi WNW 16.1 mph 23.0 mph N/A   Partly Cloudy
8:15 PM 66.2 °F 42.8 °F 43% 30.02 in 10.0 mi WNW 12.7 mph - N/A   Partly Cloudy
8:35 PM 64.4 °F 42.8 °F 45% 30.02 in 10.0 mi West 13.8 mph 19.6 mph N/A   Mostly Cloudy
8:55 PM 64.4 °F 42.8 °F 45% 30.03 in 10.0 mi West 9.2 mph - N/A   Scattered Clouds
9:15 PM 62.6 °F 42.8 °F 48% 30.04 in 10.0 mi West 6.9 mph - N/A   Partly Cloudy
9:35 PM 60.8 °F 44.6 °F 55% 30.05 in 10.0 mi West 5.8 mph - N/A   Clear
9:55 PM 59.0 °F 44.6 °F 59% 30.05 in 10.0 mi West 5.8 mph - N/A   Clear
10:15 PM 59.0 °F 44.6 °F 59% 30.05 in 10.0 mi West 3.5 mph - N/A   Clear
10:35 PM 57.2 °F 44.6 °F 63% 30.05 in 10.0 mi WSW 5.8 mph - N/A   Clear
10:55 PM 57.2 °F 44.6 °F 63% 30.05 in 10.0 mi WSW 6.9 mph - N/A   Clear
11:15 PM 57.2 °F 46.4 °F 67% 30.06 in 10.0 mi SW 4.6 mph - N/A   Clear
11:35 PM 55.4 °F 46.4 °F 72% 30.06 in 10.0 mi SW 3.5 mph - N/A   Clear
11:55 PM 55.4 °F 46.4 °F 72% 30.07 in 10.0 mi SW 4.6 mph - N/A   Clear